Voltar ao catálogo

STARLINK-5237

AtivoComunicaçõesVLEO
NORAD 54196·PAYLOAD·🇺🇸 United States

Lançado Oct 28, 2022 de Vandenberg Space Force Base

Loading…

Próximas Passagens (próximas 24 horas)

TLE

AtualizadoSource: CelesTrak SupGP

Época: Sep 15, 2026, 02:29 UTC

1 54196C 22141AR  26258.10395833 -.00050711  00000+0 -14507-2 0  2582
2 54196  53.1578 213.1638 0001364  87.6454 348.6859 15.35426915    13

Acompanhe STARLINK-5237 em tempo real com AllMySat

Download on the App Store